Hourly Data Report for October 03, 2014

All times are specified in Local Standard Time (LST). Add 1 hour to adjust for Daylight Saving Time where and when it is observed.

GRISE FIORD CLIMATE
NUNAVUT

76°25'22.040" N
82°54'08.020" W
44.50 m
2402351
71971
NGC

Download Data

Hourly Data (October 2014)
Hourly Data Report for October 3, 2014
Temp Definition
°C
Dew Point Temp Definition
°C
Rel Hum Definition
%
Wind Dir Definition
10's deg

Wind Spd Definition
km/h
Visibility Definition
km
Stn Press Definition
kPa
Hmdx Definition


Wind Chill Definition


Weather Definition


TIME
00:00 -4.6 -13.1 51 17 6   101.05   -7 LegendNANA
01:00 -5.3 -13.2 54 25 7   101.06   -9 LegendNANA
02:00 -5.4 -13.6 53 10 8   101.11   -9 LegendNANA
03:00 -5.3 -13.4 53 24 5   101.13   -8 LegendNANA
04:00 -6.0 -13.5 55 14 5   101.13   -8 LegendNANA
05:00 -7.0 -13.2 61 12 7   101.16   -11 LegendNANA
06:00 -6.6 -13.8 56 11 9   101.19   -11 LegendNANA
07:00 -7.2 -13.2 62 4 1   101.19   -8 LegendNANA
08:00 -7.3 -12.6 66 11 10   101.19   -12 LegendNANA
09:00 -6.5 -13.7 57 7 4   101.18   -8 LegendNANA
10:00 -5.8 -12.6 59 13 6   101.21   -9 LegendNANA
11:00 -5.7 -14.4 50 7 8   101.22   -9 LegendNANA
12:00 -5.0 -13.8 50 15 7   101.21   -8 LegendNANA
13:00 -4.5 -13.4 50 25 4   101.22   -6 LegendNANA
14:00 -4.9 -13.6 50 10 6   101.25   -8 LegendNANA
15:00 -4.9 -13.1 53 26 16   101.27   -11 LegendNANA
16:00 -4.9 -13.2 52 28 5   101.31   -7 LegendNANA
17:00 -5.3 -14.9 47 6 8   101.35   -9 LegendNANA
18:00 -5.8 -14.9 48 8 15   101.40   -12 LegendNANA
19:00 -6.0 -15.3 48 7 6   101.43   -9 LegendNANA
20:00 -6.6 -14.6 53 6 17   101.41   -13 LegendNANA
21:00 -6.8 -14.8 53 9 6   101.45   -10 LegendNANA
22:00 -7.3 -14.8 55 4 12   101.43   -13 LegendNANA
23:00 -7.0 -13.7 59 6 10   101.44   -12 LegendNANA

Notes on Data Quality.

Legend

  • E = Estimated
  • M = Missing
  • NA = Not Available
  • ‡ = Partner data that is not subject to review by the National Climate Archives
Date modified: